EW2821 Weather Reports


Display with metric or nautical units.
time (UTC)temp
F
wind
direction
speed
MPH
gust
MPH
rain 1hr
in
rain 24hr
in
rain mn
in
humidity
%
barometer
mb
20260509063029 53 222 6.0 12.0 0.02 0.41 0.13 95 1008.7
20260509061525 53 203 6.0 11.0 0.02 0.40 0.12 95 1008.9
20260509060028 53 209 8.0 13.0 0.01 0.39 0.11 95 1008.9
20260509054524 53 205 5.0 12.0 0.04 0.39 0.11 95 1009.0
20260509053028 53 205 6.0 15.0 0.06 0.39 0.11 94 1009.0
20260509051530 53 207 7.0 14.0 0.08 0.38 0.10 94 1009.1
20260509050025 53 213 10.0 17.0 0.10 0.38 0.10 94 1009.1
20260509044522 54 180 6.0 12.0 0.09 0.35 0.07 93 1009.1
20260509043016 54 215 8.0 17.0 0.11 0.33 0.05 93 1009.3
20260509041515 54 207 6.0 12.0 0.10 0.28 0.01 94 1009.4
20260509040015 54 179 6.0 12.0 0.11 0.28 0.28 94 1009.5
20260509034514 54 203 5.0 16.0 0.10 0.26 0.26 93 1009.7
20260509033010 54 229 5.0 17.0 0.07 0.22 0.22 93 1009.8
20260509031509 54 244 8.0 16.0 0.05 0.19 0.19 93 1009.7
20260509030008 54 234 8.0 20.0 0.06 0.17 0.17 93 1009.9
20260509024509 54 210 10.0 20.0 0.06 0.16 0.16 93 1009.8
20260509023014 54 203 11.0 17.0 0.05 0.15 0.15 93 1010.1
20260509021511 54 211 7.0 15.0 0.04 0.14 0.14 93 1010.0
20260509020007 54 222 6.0 11.0 0.01 0.11 0.11 93 1010.0
20260509014506 54 210 5.0 12.0 0.01 0.10 0.10 93 1009.9
20260509013016 54 212 5.0 10.0 0.02 0.10 0.10 93 1009.9
20260509011505 54 211 6.0 9.0 0.04 0.10 0.10 93 1009.7
20260509010005 54 212 4.0 8.0 0.04 0.10 0.10 92 1009.7
20260509004505 54 229 2.0 4.0 0.04 0.09 0.09 92 1009.7
20260509003003 54 216 5.0 9.0 0.04 0.08 0.08 91 1009.5
20260509001502 54 254 6.0 10.0 0.03 0.06 0.06 90 1010.0
20260509000002 54 253 6.0 11.0 0.04 0.06 0.06 89 1009.8
20260508234505 54 262 5.0 11.0 0.04 0.05 0.05 90 1009.8
20260508233002 54 215 4.0 9.0 0.04 0.04 0.04 90 1009.6
20260508231605 55 309 1.0 3.0 0.03 0.03 0.03 89 1009.9
20260508224608 56 303 9.0 12.0 0.01 0.01 0.01 84 1010.2
20260508223057 59 279 8.0 12.0 0.00 0.00 0.00 76 1010.2
20260508221603 60 195 3.0 6.0 0.00 0.00 0.00 70 1009.5
20260508220056 61 212 3.0 5.0 0.00 0.00 0.00 66 1009.1
20260508214555 61 200 2.0 4.0 0.00 0.00 0.00 66 1009.0
20260508213113 61 241 0.0 4.0 0.00 0.00 0.00 66 1009.1
20260508211552 61 254 1.0 3.0 0.00 0.00 0.00 63 1009.3
20260508210051 62 250 1.0 5.0 0.00 0.00 0.00 62 1009.6
20260508204551 62 266 5.0 9.0 0.00 0.00 0.00 61 1009.7
20260508203102 62 211 4.0 11.0 0.00 0.00 0.00 60 1009.8
20260508201545 62 218 4.0 13.0 0.00 0.00 0.00 60 1010.2
20260508200051 62 227 8.0 17.0 0.00 0.00 0.00 58 1010.4
20260508194543 62 230 6.0 17.0 0.00 0.00 0.00 58 1010.5
20260508193115 62 201 5.0 22.0 0.00 0.00 0.00 58 1010.4
20260508191542 63 226 10.0 19.0 0.00 0.00 0.00 57 1010.4
20260508190040 63 176 10.0 17.0 0.00 0.00 0.00 58 1010.8
20260508184546 63 249 7.0 21.0 0.00 0.00 0.00 59 1010.9
20260508183041 64 202 11.0 17.0 0.00 0.00 0.00 56 1011.0
20260508181537 65 216 8.0 26.0 0.00 0.00 0.00 55 1011.0
20260508180034 65 243 14.0 23.0 0.00 0.00 0.00 56 1011.0
20260508174548 64 190 14.0 23.0 0.00 0.00 0.00 61 1011.2
20260508173030 63 241 10.0 23.0 0.00 0.00 0.00 59 1011.5
20260508171528 62 239 5.0 16.0 0.00 0.00 0.00 61 1011.8
20260508170022 61 178 4.0 13.0 0.00 0.00 0.00 63 1012.1
20260508164528 61 221 7.0 19.0 0.00 0.00 0.00 59 1012.4
20260508163023 62 160 8.0 19.0 0.00 0.00 0.00 57 1012.4
20260508161535 62 237 7.0 17.0 0.00 0.00 0.00 59 1012.8
20260508160017 61 274 6.0 14.0 0.00 0.00 0.00 60 1012.9
20260508154516 62 257 6.0 14.0 0.00 0.00 0.00 61 1012.9
20260508153012 61 227 8.0 13.0 0.00 0.00 0.00 63 1012.8
20260508151523 60 232 10.0 18.0 0.00 0.00 0.00 62 1012.7
20260508150012 59 205 9.0 21.0 0.00 0.00 0.00 65 1012.8
20260508144505 58 275 9.0 18.0 0.00 0.00 0.00 63 1013.2
20260508143001 57 228 7.0 14.0 0.00 0.00 0.00 64 1013.3
20260508141557 57 243 6.0 12.0 0.00 0.00 0.00 65 1013.4
20260508140056 56 247 8.0 14.0 0.00 0.00 0.00 65 1013.5
20260508134600 55 226 8.0 13.0 0.00 0.00 0.00 66 1013.5
20260508133102 53 212 6.0 9.0 0.00 0.00 0.00 69 1013.4
20260508131540 52 241 4.0 8.0 0.00 0.00 0.00 73 1013.7
20260508130036 50 253 3.0 8.0 0.00 0.00 0.00 74 1013.7
20260508124534 48 253 3.0 4.0 0.00 0.00 0.00 76 1013.9
20260508123031 48 257 1.0 4.0 0.00 0.00 0.00 78 1013.7
20260508121532 47 216 2.0 5.0 0.00 0.00 0.00 78 1013.8
20260508120027 47 203 1.0 4.0 0.00 0.00 0.00 80 1013.6
20260508114527 45 194 1.0 7.0 0.00 0.01 0.00 82 1013.6
20260508113028 45 199 4.0 5.0 0.00 0.01 0.00 80 1013.3
20260508111518 47 278 2.0 4.0 0.00 0.01 0.00 77 1013.3
20260508110018 47 215 1.0 4.0 0.00 0.01 0.00 76 1013.1
20260508104515 46 225 1.0 6.0 0.00 0.01 0.00 76 1012.9
20260508103014 46 183 3.0 6.0 0.00 0.01 0.00 77 1012.8
20260508101515 46 207 4.0 7.0 0.00 0.01 0.00 75 1012.8
20260508100012 48 237 2.0 5.0 0.00 0.01 0.00 73 1012.9
20260508094512 48 234 0.0 5.0 0.00 0.01 0.00 71 1012.9
20260508093011 49 226 1.0 6.0 0.00 0.01 0.00 71 1012.9
20260508091522 49 199 3.0 6.0 0.00 0.01 0.00 70 1012.9
20260508090014 48 249 3.0 7.0 0.00 0.01 0.00 70 1013.1
20260508084508 48 236 1.0 4.0 0.00 0.01 0.00 70 1013.2
20260508083016 48 205 3.0 6.0 0.00 0.01 0.00 71 1013.1
20260508081509 48 228 0.0 5.0 0.00 0.01 0.00 68 1013.2
20260508080006 48 260 0.0 6.0 0.00 0.01 0.00 69 1013.2
20260508074505 48 253 1.0 7.0 0.00 0.01 0.00 71 1013.1
20260508073001 47 214 2.0 7.0 0.00 0.01 0.00 72 1013.1
20260508071600 47 207 2.0 7.0 0.00 0.01 0.00 73 1013.2
20260508070101 47 229 2.0 6.0 0.00 0.01 0.00 72 1013.4
20260508064557 47 224 2.0 7.0 0.00 0.01 0.00 73 1013.4
20260508063138 47 220 2.0 6.0 0.00 0.01 0.00 73 1013.5